Theta_e
307 306 306 307 307 307 307 308 309 310 313 315 317 320 317 314 311 310 307 310 309 308 308 308 308 308 304 304 304 304 308 306 304 305 306 305 306 307 306 308 309 312 312 313 315 316 319
307 307 305 305 306 306 306 306 307 308 310 313 313 317 318 314 311 309 307 308 308 308 307 308 307 306 304 300 301 304 304 304 304 306 305 305 306 305 306 307 309 309 309 310 312 316 319
305 307 307 307 306 306 305 305 306 307 307 310 312 316 318 314 311 308 308 308 307 307 306 308 307 305 304 301 302 304 304 304 304 305 305 305 303 304 305 307 307 308 311 312 311 312 319
305 305 304 306 306 306 305 305 304 305 306 308 312 315 317 313 310 307 308 307 305 306 306 307 307 305 302 301 303 304 303 304 304 305 305 305 305 305 305 307 308 309 309 314 312 312 318
306 306 306 305 305 304 305 305 305 304 306 307 309 312 316 313 308 307 306 304 305 307 307 308 304 303 303 303 303 303 304 303 304 305 306 306 305 305 307 310 308 309 312 315 316 314 317
306 306 306 305 305 305 305 304 305 304 304 306 308 311 316 311 307 306 305 305 305 306 307 305 304 303 301 303 303 303 302 303 305 305 306 306 306 308 308 311 309 312 311 314 318 318 316
306 306 306 306 305 305 305 304 304 303 304 304 308 311 313 309 306 305 305 304 303 303 304 302 303 303 303 303 303 303 304 304 304 305 305 306 307 309 307 307 308 312 311 313 317 319 318
305 305 305 305 305 305 305 305 303 303 303 304 307 309 312 308 305 304 305 304 303 302 304 303 303 303 303 303 304 304 304 304 306 305 306 307 310 309 307 307 309 308 311 317 318 319 319
305 305 304 304 305 305 304 305 303 303 304 304 305 308 310 307 305 304 305 304 303 302 303 305 304 304 303 303 305 306 304 305 305 305 306 308 310 310 309 310 311 307 314 318 318 320 319
305 305 305 305 305 304 304 303 303 303 304 303 304 307 308 305 305 304 303 304 303 303 294 300 305 305 305 305 304 304 305 306 307 309 309 309 309 312 310 311 313 315 314 318 320 322 325
304 304 304 305 304 304 304 304 303 303 304 303 305 306 307 304 303 303 304 304 303 300 293 298 305 304 305 308 308 308 306 307 310 310 308 314 313 310 314 314 315 315 317 319 320 322 322
304 304 305 305 304 304 304 304 303 303 302 303 304 306 306 303 304 304 304 303 301 295 292 299 305 306 307 309 309 309 309 307 309 309 308 309 308 311 315 316 314 316 317 318 318 318 321
304 304 304 305 305 305 305 304 303 302 303 303 304 308 305 303 305 304 303 300 300 294 298 302 304 306 306 307 309 311 312 313 312 312 313 313 313 315 314 318 316 314 314 318 318 320 320
304 304 305 304 304 305 303 302 302 303 304 303 305 307 305 304 304 303 302 299 297 301 300 305 305 306 306 307 308 308 310 309 309 306 310 315 320 316 315 317 318 316 312 315 319 321 318
304 304 303 304 305 304 304 303 302 302 301 303 305 305 304 305 304 303 299 297 299 300 303 306 305 306 306 306 308 307 308 309 309 309 310 316 318 314 316 316 316 316 313 309 311 309 318
303 303 303 304 304 304 303 302 301 301 302 303 305 304 304 305 303 302 299 304 301 301 305 305 305 306 308 306 308 308 308 309 310 308 308 311 320 314 314 315 315 314 310 312 311 314 314
302 302 303 303 303 303 302 303 304 305 305 305 303 304 304 303 304 300 299 301 305 305 306 308 307 307 306 308 308 309 310 310 309 309 306 307 311 314 312 314 316 316 315 309 308 308 313
302 302 302 303 302 302 303 305 307 309 308 304 304 305 303 304 302 301 304 303 306 308 307 309 308 306 307 307 309 311 312 311 308 308 310 308 308 314 314 310 310 312 314 307 311 312 304
302 302 302 300 302 304 306 309 309 307 305 303 303 305 304 304 305 304 303 307 308 309 309 310 311 309 306 308 311 311 311 310 308 309 310 308 306 306 309 308 308 312 312 307 306 306 308
302 301 302 304 306 309 310 307 306 305 305 303 304 305 304 305 302 302 306 308 309 308 309 309 308 308 309 309 308 311 312 311 309 310 310 306 305 305 305 308 308 313 312 310 307 308 311
301 301 304 308 311 310 308 306 305 304 305 304 303 305 304 305 306 303 305 308 309 310 308 307 309 309 309 310 310 312 311 310 310 308 306 306 308 302 306 308 308 312 312 311 305 309 310
301 304 307 311 311 308 307 306 305 305 306 302 303 303 299 301 304 304 307 308 308 309 309 309 308 308 308 309 308 310 310 310 310 307 307 304 306 302 307 305 306 310 308 308 310 311 311
302 304 310 309 309 308 307 305 305 305 305 301 298 299 299 304 304 307 306 306 308 307 308 307 306 306 308 308 306 305 304 303 306 308 307 306 305 305 307 305 305 307 307 307 308 308 309
303 304 309 308 308 307 306 305 304 304 302 300 298 298 298 304 304 306 305 307 307 308 308 306 306 307 305 301 301 302 301 302 302 302 303 306 305 305 304 301 301 303 302 304 306 303 303
303 304 305 307 307 307 307 305 301 299 299 298 297 297 298 303 302 304 305 305 305 304 305 305 304 303 301 303 305 306 305 307 304 302 302 302 303 306 306 304 301 306 306 306 306 305 303
302 303 304 306 307 307 307 305 305 305 302 299 296 296 297 303 302 294 303 304 304 304 304 304 304 303 302 302 304 307 306 307 308 308 303 302 301 304 304 306 305 301 305 304 302 305 303
302 303 305 306 306 307 307 307 305 305 305 301 297 296 296 294 293 294 301 303 300 301 302 305 306 307 302 304 307 305 305 304 308 308 308 305 303 306 307 305 305 302 303 303 308 302 302
301 303 308 307 306 306 306 306 306 306 306 303 297 298 297 293 294 294 294 298 300 301 304 302 304 303 303 306 305 304 303 303 304 303 304 305 304 305 304 306 304 303 303 305 302 301 301
301 306 308 308 307 305 305 305 305 305 304 304 300 297 297 294 294 295 295 296 295 295 297 296 301 301 301 302 301 301 304 299 299 304 300 304 301 303 303 304 301 303 302 300 300 299 300
Wind_Speed
21 23 24 23 23 25 25 26 27 29 31 29 27 21 21 17 13 12 9 9 9 9 6 7 3 2 1 1 6 5 5 2 2 2 5 3 2 2 5 3 5 10 10 8 10 13 14
22 22 22 23 23 24 25 26 27 28 29 31 33 31 25 19 15 11 9 7 8 7 6 4 3 2 3 2 2 6 3 2 2 4 4 6 6 5 6 8 8 4 14 16 14 10 9
25 23 23 23 24 22 24 25 26 27 27 29 28 29 25 17 13 9 7 6 7 9 7 5 5 3 2 8 3 4 4 4 5 5 3 9 6 3 4 7 13 14 6 7 15 13 3
26 28 27 25 23 23 25 25 25 27 28 27 26 22 18 17 10 9 6 6 7 7 5 5 6 4 4 2 4 6 6 6 7 7 8 8 7 6 11 7 4 13 7 8 13 12 4
28 26 26 26 26 27 25 24 24 25 27 28 27 28 17 17 10 7 6 4 5 4 2 6 5 3 6 4 4 5 9 5 5 5 5 3 4 5 6 4 7 9 5 9 6 16 5
28 27 27 26 27 26 26 26 25 25 26 27 30 30 17 18 9 8 5 2 2 3 5 5 3 1 5 2 2 2 4 5 4 1 2 4 3 3 4 4 9 7 8 7 6 12 7
31 30 29 27 27 28 27 26 27 25 26 27 28 29 18 17 12 9 8 5 2 2 4 6 4 3 3 1 5 2 1 0 3 3 6 5 4 6 11 11 2 2 9 11 4 11 8
32 32 31 29 28 27 27 26 25 25 24 24 24 27 20 16 14 11 11 3 4 1 2 8 3 4 6 2 1 2 1 3 4 8 2 4 8 8 11 10 9 2 10 6 9 11 4
33 32 31 31 29 29 28 25 23 23 21 21 21 29 22 17 14 13 13 10 4 2 3 2 3 3 2 4 3 4 4 2 5 7 9 10 4 10 8 9 10 7 12 7 13 10 8
34 32 32 32 31 30 25 24 21 20 20 21 18 22 18 17 10 6 6 18 6 3 4 3 2 4 3 3 3 3 5 3 2 4 6 6 5 8 10 7 10 9 7 14 16 6 5
35 36 33 31 31 30 27 24 22 20 17 20 15 18 20 18 10 7 4 14 9 2 3 3 2 2 2 2 5 3 4 5 5 5 3 5 5 3 5 7 13 3 9 16 8 9 10
38 37 34 33 31 28 26 22 19 14 18 15 17 25 26 14 6 6 16 15 3 6 4 2 1 2 1 3 3 2 3 4 6 0 3 3 2 1 2 1 4 10 7 5 3 0 4
40 36 36 32 30 26 24 20 20 17 16 15 16 8 28 16 7 17 18 2 4 4 3 2 2 1 1 3 2 2 3 2 4 4 5 3 3 3 2 7 3 5 4 2 4 4 2
40 36 34 31 27 23 21 19 16 17 16 14 13 17 19 11 14 22 7 4 4 2 4 1 1 2 2 4 2 2 1 6 4 4 4 5 5 8 7 3 3 3 2 3 5 4 3
39 34 30 27 23 19 18 16 16 18 20 13 13 18 16 9 22 18 4 2 6 5 5 6 3 4 3 1 1 4 5 5 3 5 4 2 5 3 5 4 3 6 4 1 6 2 3
34 32 29 24 21 21 20 20 25 24 19 15 10 10 7 14 21 8 4 3 2 3 2 2 4 1 2 5 4 3 5 4 6 5 2 2 4 3 3 2 5 1 0 1 3 4 4
32 28 25 25 25 26 29 27 30 28 29 17 18 4 8 20 12 4 2 4 3 2 1 1 3 4 1 1 2 3 4 3 4 6 5 2 3 2 2 4 2 3 2 5 4 2 4
29 29 28 28 27 31 33 39 40 16 25 39 6 3 16 16 3 2 2 4 3 2 3 1 4 3 3 1 3 3 2 2 7 2 3 3 3 4 1 4 3 2 3 3 3 3 4
29 30 32 33 35 39 34 30 47 59 40 21 3 3 6 1 3 4 3 2 2 3 1 2 2 1 1 2 3 2 1 2 6 4 2 1 3 3 6 3 2 5 4 4 4 2 2
31 34 38 44 47 28 4 55 53 39 33 15 4 4 2 1 2 4 4 3 3 2 2 3 3 3 3 4 5 2 2 3 5 3 8 4 4 3 4 2 1 4 4 3 3 3 2
35 37 46 50 19 30 60 51 33 29 24 11 3 2 3 6 4 3 1 4 5 3 2 3 3 2 2 2 2 2 1 3 3 7 4 4 4 3 4 3 3 3 4 3 4 2 3
39 46 50 27 27 61 53 34 26 17 12 11 3 4 2 2 9 4 1 3 4 2 3 1 5 3 2 3 1 5 3 0 1 5 4 4 1 2 4 5 5 2 2 3 3 2 0
39 46 31 28 42 42 32 31 21 16 8 5 2 3 4 6 10 3 5 4 6 5 4 3 5 5 5 2 2 3 4 5 3 2 3 3 3 3 2 4 3 4 2 1 1 2 2
34 36 25 22 30 31 28 26 25 21 16 7 4 4 4 3 7 7 4 2 5 2 6 2 4 4 2 5 3 3 7 8 9 7 3 3 3 2 1 3 3 4 3 2 4 5 6
30 28 27 16 21 29 18 23 24 21 22 22 5 2 3 5 4 1 3 5 4 5 5 4 4 1 3 3 3 4 5 4 6 5 7 4 3 3 3 1 3 1 2 1 2 1 4
28 27 25 17 17 33 20 18 13 9 21 16 22 4 3 6 1 2 2 1 4 3 3 3 3 1 4 3 3 2 2 1 2 3 3 4 5 4 1 2 2 4 2 1 2 3 0
27 28 21 12 20 27 31 12 15 5 4 17 16 10 6 4 2 2 2 2 2 4 4 2 1 1 2 2 2 2 2 1 2 4 2 2 3 3 2 1 5 4 3 1 2 2 1
30 30 16 6 17 24 33 24 7 4 2 7 11 20 4 3 2 2 3 2 2 2 4 3 3 3 2 3 2 3 2 4 1 3 4 5 5 3 2 2 5 4 1 5 2 1 1
28 27 16 5 13 19 23 26 14 7 2 3 6 12 12 5 3 4 9 12 3 1 4 3 2 2 3 4 1 2 2 1 3 2 1 2 5 4 7 5 2 1 3 4 3 2 1
Wind_Direction
334 333 332 333 333 334 331 331 333 334 335 335 324 284 241 234 235 248 265 272 281 277 291 298 227 279 136 56 246 181 191 227 290 239 176 148 140 178 244 245 231 240 252 290 260 265 276
331 329 328 326 328 332 333 334 331 331 332 336 331 335 235 225 225 243 259 260 284 266 277 265 196 249 144 243 177 177 207 247 240 198 187 169 183 193 264 249 230 235 232 249 270 281 242
323 322 325 326 326 327 328 329 332 331 329 330 333 329 233 221 228 249 242 261 271 278 264 247 180 203 153 238 181 202 247 235 250 233 208 229 199 137 279 257 222 244 283 246 235 252 237
322 320 317 318 319 323 325 325 327 332 331 325 329 322 259 218 208 237 230 250 275 268 235 213 174 193 244 233 237 243 215 231 250 231 230 260 233 217 226 256 254 204 241 238 223 210 210
321 321 319 318 318 321 324 327 327 328 329 329 325 317 278 205 195 225 228 269 251 249 160 155 180 132 272 274 225 264 230 229 238 246 242 221 154 208 213 211 218 186 195 219 155 186 129
314 314 311 312 313 317 319 323 326 326 326 329 330 332 211 180 173 197 220 185 210 207 152 149 98 63 268 220 265 232 240 248 231 348 260 203 229 223 187 190 200 200 192 181 169 167 134
318 318 315 312 312 312 315 319 322 323 327 325 329 333 177 173 167 179 185 137 79 231 205 195 189 228 252 275 272 211 132 83 198 182 236 187 221 230 202 196 267 53 179 171 171 152 139
319 316 315 312 307 307 309 312 315 318 320 322 330 329 196 175 166 165 203 185 231 181 166 226 182 263 260 211 334 221 30 211 207 243 210 229 243 238 207 205 231 167 195 161 119 147 118
313 312 309 307 304 303 310 305 308 314 317 315 324 339 183 163 167 162 209 204 229 194 98 246 193 226 228 146 249 214 168 164 233 242 237 245 290 172 166 190 184 226 204 154 135 117 83
315 310 306 305 304 303 304 300 305 306 310 307 296 326 171 157 153 161 216 215 206 201 70 275 279 272 125 109 285 196 219 236 251 268 232 237 220 168 163 209 189 177 193 145 146 166 93
316 310 309 304 301 299 297 295 301 292 297 301 308 331 175 161 147 161 222 176 185 90 38 259 228 228 95 132 313 237 174 183 245 239 213 68 136 137 161 181 196 195 142 140 163 110 124
313 310 306 301 299 297 294 290 294 301 298 289 299 310 171 168 152 192 156 163 163 45 260 312 243 232 289 178 212 245 223 202 262 205 15 86 331 185 289 227 180 135 102 98 102 149 59
315 311 308 303 298 292 293 284 279 296 292 289 289 273 166 158 154 155 153 115 53 125 281 240 195 140 61 293 298 276 334 324 18 9 17 158 105 190 56 101 35 86 73 43 28 47 80
316 312 309 306 299 289 277 278 274 283 296 289 286 176 165 149 157 160 149 57 97 128 206 262 198 81 63 344 312 7 345 7 33 49 47 27 64 11 348 56 123 82 136 156 143 129 170
317 314 314 310 302 298 285 282 281 273 284 281 306 139 156 168 159 164 77 72 207 194 168 165 67 67 345 354 236 21 25 355 350 8 97 59 50 16 16 19 4 313 37 276 106 66 93
322 320 315 310 311 304 297 286 275 263 265 245 135 112 142 159 164 132 77 246 209 185 144 230 110 70 24 323 26 34 18 335 339 19 254 68 99 13 18 54 321 291 255 63 13 98 82
326 326 321 317 315 307 296 283 279 263 244 198 114 105 156 155 145 59 172 229 238 204 215 131 138 122 193 330 31 27 351 329 357 330 44 39 43 319 11 22 341 353 14 48 108 48 123
330 329 326 321 313 299 296 302 302 229 176 138 110 102 161 160 115 171 206 208 183 163 210 68 103 105 133 137 41 70 66 300 334 291 55 334 106 66 173 270 259 3 40 74 96 344 47
336 337 334 315 305 303 301 306 136 137 141 119 86 84 136 56 148 186 258 224 147 156 207 101 97 83 150 83 87 59 76 311 340 40 72 6 15 37 351 6 50 51 27 56 70 68 358
348 341 326 317 315 307 110 130 128 133 137 102 108 118 67 305 138 175 182 147 106 359 91 81 104 91 94 55 18 112 45 339 341 27 47 84 64 113 157 236 297 56 34 40 97 72 167
352 341 335 343 32 125 135 130 124 128 132 91 60 107 170 176 215 201 236 132 128 138 52 22 64 65 116 94 47 74 1 349 3 352 40 79 95 72 46 27 50 55 33 25 76 144 99
355 352 357 32 116 134 134 119 108 117 104 74 113 138 60 152 171 154 358 165 131 123 114 174 119 97 44 110 231 194 155 116 14 359 49 16 99 83 31 13 27 94 74 67 77 100 140
358 3 37 64 123 118 117 110 96 94 80 96 103 81 100 126 165 172 175 179 178 140 30 82 146 101 67 34 129 86 93 79 85 78 64 56 117 65 330 341 7 28 24 84 97 155 145
359 7 48 76 125 117 107 94 83 67 56 97 88 106 98 135 169 169 161 216 139 13 132 35 63 92 153 102 118 66 57 69 56 33 38 116 93 78 166 4 45 245 305 240 86 31 6
354 6 15 39 146 151 94 125 83 65 57 70 60 110 121 124 156 310 167 116 90 55 61 72 17 294 121 66 62 41 357 22 10 28 19 48 104 75 96 137 256 47 355 78 168 26 356
350 355 3 9 172 173 129 139 131 64 43 45 35 57 116 122 156 307 106 109 119 94 38 49 14 70 67 76 68 107 201 218 342 11 27 42 65 99 94 103 193 230 271 358 71 253 350
345 345 349 2 177 181 178 136 183 210 18 31 26 25 82 102 353 353 114 154 103 90 99 124 166 74 38 78 82 147 222 186 164 172 171 31 17 125 154 186 286 237 275 236 128 229 299
343 348 352 6 177 179 184 188 157 156 255 24 34 28 74 96 30 12 10 69 46 85 138 193 82 350 50 87 141 196 157 216 119 188 188 174 143 184 100 113 292 186 116 170 167 146 355
344 350 345 183 181 182 191 198 193 205 319 29 36 31 56 76 127 110 76 55 42 308 127 25 147 151 169 95 126 124 161 123 163 238 24 222 184 183 181 211 202 141 135 115 115 160 101